Regional Weather Roundup
Issued by NWS

Home | Current Version | Previous Version | Graphics & Text | Print | Product List | Glossary On
Versions: 1 2 3 4 5 6 7 8 9 10 11 12 13 14 15 16 17 18 19 20 21 22 23 24 25 26 27 28 29 30 31 32 33 34 35 36 37 38 39 40 41 42 43 44 45 46 47 48 49 50
000
ASUS43 KMKX 221811
RWRWI

WISCONSIN REGIONAL WEATHER ROUNDUP
NATIONAL WEATHER SERVICE MILWAUKEE/SULLIVAN WI
100 PM CDT SUN OCT 22 2017

NOTE: "FAIR" INDICATES FEW OR NO CLOUDS BELOW 12,000 FEET WITH NO
SIGNIFICANT WEATHER AND/OR OBSTRUCTIONS TO VISIBILITY.

WIZ001-002-006>008-014>016-023>028-221900-
NORTHWEST WISCONSIN

CITY           SKY/WX    TMP DP  RH WIND       PRES   REMARKS
SUPERIOR ARPT  MOSUNNY   56  38  50 W12       29.90F
6HR MIN TEMP:  47; 6HR MAX TEMP:  56;

ASHLAND        CLOUDY    52  39  61 SW13G22   29.92S
6HR MIN TEMP:  49; 6HR MAX TEMP:  52;

HAYWARD        CLOUDY    51  38  60 SW9       29.94F
6HR MIN TEMP:  48; 6HR MAX TEMP:  51;

SIREN          CLOUDY    56  38  50 W12       29.95F
6HR MIN TEMP:  47; 6HR MAX TEMP:  56;

CUMBERLAND     CLOUDY    54  36  50 W10       29.96F
RICE LAKE      CLOUDY    53  38  58 W8        29.98F
6HR MIN TEMP:  48; 6HR MAX TEMP:  53;

CHETEK         CLOUDY    53  40  61 W5        29.97F
6HR MIN TEMP:  48; 6HR MAX TEMP:  53;

LADYSMITH      CLOUDY    51  42  73 SW5       29.98S
6HR MIN TEMP:  48; 6HR MAX TEMP:  51;

EAU CLAIRE     PTSUNNY   53  42  66 W8        29.98F
6HR MIN TEMP:  49; 6HR MAX TEMP:  53;

MENOMONIE      CLOUDY    55  42  62 SW6       29.99F
6HR MIN TEMP:  50; 6HR MAX TEMP:  55;

NEW RICHMOND   MOSUNNY   58  35  41 W8        29.98F
OSCEOLA        MOSUNNY   59  38  45 W10       30.00F
6HR MIN TEMP:  48; 6HR MAX TEMP:  59;

$$

WIZ003>005-009-010-017-018-221900-
NORTH CENTRAL WISCONSIN

CITY           SKY/WX    TMP DP  RH WIND       PRES   REMARKS
MANITOWISH WTR CLOUDY    47  46  95 SW5       29.93F
6HR MIN TEMP:  46; 6HR MAX TEMP:  49; 6HR PCP:  0.01;

ARBOR VITAE    CLOUDY    49  46  87 W6        29.93F
6HR MIN TEMP:  49; 6HR MAX TEMP:  52;

WOODRUFF       CLOUDY    49  46  87 W6        29.93F
6HR MIN TEMP:  49; 6HR MAX TEMP:  52;

RHINELANDER    CLOUDY    48  46  93 W6        29.95F
6HR MIN TEMP:  48; 6HR MAX TEMP:  52; 6HR PCP:  0.02;

EAGLE RIVER    NOT AVBL
LAND O LAKES   CLOUDY    48  44  84 W3        29.94S
6HR MIN TEMP:  48; 6HR MAX TEMP:  52;

PHILLIPS       PTSUNNY   48  44  85 SW5       29.95F
6HR MIN TEMP:  47; 6HR MAX TEMP:  48;

TOMAHAWK       CLOUDY    48  44  86 W5        29.96S
6HR MIN TEMP:  47; 6HR MAX TEMP:  50;

MEDFORD        CLOUDY    48  42  80 W8        29.97S
6HR MIN TEMP:  47; 6HR MAX TEMP:  48;

MERRILL        CLOUDY    49  47  92 W6        29.97S
6HR MIN TEMP:  49; 6HR MAX TEMP:  52; 6HR PCP:  0.01;

$$

WIZ029-030-035-036-043>047-221900-
CENTRAL WISCONSIN

CITY           SKY/WX    TMP DP  RH WIND       PRES   REMARKS
WAUSAU         LGT RAIN  49  46  90 W8        29.97R
6HR MIN TEMP:  49; 6HR MAX TEMP:  53; 6HR PCP:  0.05;

MOSINEE        DRIZZLE   48  46  93 W7        29.99R
MARSHFIELD     CLOUDY    50  43  77 W7        29.97F
6HR MIN TEMP:  49; 6HR MAX TEMP:  51; 6HR PCP: TRACE;

STEVENS POINT  LGT RAIN  48  47  97 W5        29.98S
6HR MIN TEMP:  48; 6HR MAX TEMP:  52; 6HR PCP:  0.06;

WAUPACA        CLOUDY    53  50  88 NW3       29.98F
6HR MIN TEMP:  53; 6HR MAX TEMP:  64; 6HR PCP:  0.01;

WAUTOMA        CLOUDY   N/A N/A N/A W6        29.99F
WISC RAPIDS    LGT RAIN  50  48  93 W6        30.00S
6HR MIN TEMP:  50; 6HR MAX TEMP:  53; 6HR PCP:  0.06;

CAMP DOUGLAS   CLOUDY    52  48  87 NW6       30.00F
$$

WIZ011>013-019>022-031-037>040-048>050-221900-
NORTHEAST WISCONSIN

CITY           SKY/WX    TMP DP  RH WIND       PRES   REMARKS
ANTIGO         DRIZZLE   47  45  91 W7        29.97R
6HR MIN TEMP:  47; 6HR MAX TEMP:  53; 6HR PCP:  0.06;

SHAWANO        RAIN      53  50  87 W3        29.96S
6HR MIN TEMP:  52; 6HR MAX TEMP:  67; 6HR PCP:  0.06;

OCONTO         CLOUDY    50  48  92 W6        29.94F
6HR MIN TEMP:  50; 6HR MAX TEMP:  62; 6HR PCP:  0.08;

STURGEON BAY   LGT RAIN  52  50  93 NW10      29.95R
6HR MIN TEMP:  52; 6HR MAX TEMP:  60; 6HR PCP:  0.36;

GREEN BAY      CLOUDY    52  51  97 NW6       29.96S
6HR MIN TEMP:  51; 6HR MAX TEMP:  63; 6HR PCP:  0.12;

MANITOWOC      LGT RAIN  52  50  93 NW13      29.96R
6HR MIN TEMP:  52; 6HR MAX TEMP:  61; 6HR PCP:  0.22;

APPLETON       CLOUDY    52  48  87 NW7       29.95F
CLINTONVILLE   CLOUDY    52  48  87 NW7       29.96S
OSHKOSH        LGT RAIN  51  48  89 NW7       29.98R
6HR MIN TEMP:  50; 6HR MAX TEMP:  65; 6HR PCP:  0.09;

$$

WIZ032>034-041-042-053>061-221900-
SOUTHWEST WISCONSIN

CITY           SKY/WX    TMP DP  RH WIND       PRES   REMARKS
LA CROSSE      CLOUDY    55  45  68 NW8       30.00F
6HR MIN TEMP:  52; 6HR MAX TEMP:  55; 6HR PCP: TRACE;

SPARTA         CLOUDY    52  46  80 W5        30.01F
6HR MIN TEMP:  49; 6HR MAX TEMP:  52; 6HR PCP:  0.01;

VIROQUA        CLOUDY    51  47  86 NW8       30.00F
6HR MIN TEMP:  49; 6HR MAX TEMP:  51;

BOSCOBEL       CLOUDY    54  46  74 N6        30.00F
6HR MIN TEMP:  51; 6HR MAX TEMP:  55; 6HR PCP:  0.01;

PRAIRIE DU CHI CLOUDY    53  44  71 CALM      30.01F
6HR MIN TEMP:  51; 6HR MAX TEMP:  54;

PLATTEVILLE    CLOUDY    52  49  92 N10       30.01S
6HR MIN TEMP:  51; 6HR MAX TEMP:  53; 6HR PCP:  0.01;

$$

WIZ056-057-062-063-064-067-068-221900-
SOUTH CENTRAL WISCONSIN

CITY           SKY/WX    TMP DP  RH WIND       PRES   REMARKS
REEDSBURG      CLOUDY    50  47  89 NW3       29.99F
6HR MIN TEMP:  50; 6HR MAX TEMP:  54; 6HR PCP:  0.08;

BARABOO/DELLS  CLOUDY    50  47  88 CALM      29.99F
6HR MIN TEMP:  50; 6HR MAX TEMP:  55; 6HR PCP:  0.12;

LONE ROCK      CLOUDY    53  47  79 NW5       30.00F
6HR MIN TEMP:  52; 6HR MAX TEMP:  54; 6HR PCP:  0.04;

MINERAL POINT  RAIN      52  50  93 NW7       30.01R
MADISON        LGT RAIN  51  47  86 VRB5      30.00S
6HR MIN TEMP:  51; 6HR MAX TEMP:  64; 6HR PCP:  0.15;

MIDDLETON      CLOUDY    53  49  87 N6        30.00F
6HR MIN TEMP:  53; 6HR MAX TEMP:  63; 6HR PCP:  0.17;

WATERTOWN      DRIZZLE   50  50 100 NW9       29.99S
6HR MIN TEMP:  49; 6HR MAX TEMP:  62; 6HR PCP:  0.35;

MONROE         CLOUDY    50  48  93 N7        30.00F
JANESVILLE     DRIZZLE   52  52 100 NW15G22   29.99R FOG
$$

WIZ051-052-058>065-066-070>072-221900-
SOUTHEAST WISCONSIN

CITY           SKY/WX    TMP DP  RH WIND       PRES   REMARKS
MILWAUKEE      RAIN      57  55  93 NW21G32   29.95R VSB 1
6HR MIN TEMP:  62; 6HR MAX TEMP:  67; 6HR PCP:  0.08;

WAUKESHA       LGT RAIN  52  52 100 NW15G21   29.97R FOG
MILWAUKEE/TIMM RAIN      54  52  94 NW14G20   29.95R FOG
RACINE         CLOUDY    64  62  93 S8        29.92F
6HR MIN TEMP:  61; 6HR MAX TEMP:  65; 6HR PCP:  0.04;

BURLINGTON     DRIZZLE   54  54 100 NW23      29.96R
6HR MIN TEMP:  54; 6HR MAX TEMP:  66; 6HR PCP:  0.12;

KENOSHA        LGT RAIN  66  62  87 SW13      29.92F
6HR MIN TEMP:  65; 6HR MAX TEMP:  68; 6HR PCP:  0.04;

FOND DU LAC    LGT RAIN  51  47  86 NW7       29.99R
6HR MIN TEMP:  51; 6HR MAX TEMP:  64; 6HR PCP:  0.22;

SHEBOYGAN      LGT RAIN  52  51  97 NW10G21   29.96R
6HR MIN TEMP:  52; 6HR MAX TEMP:  63; 6HR PCP:  0.21;

WEST BEND      HVY RAIN  48  48 100 NW13G18   29.98R
JUNEAU         DRIZZLE   50  49  96 CALM      30.00S
6HR MIN TEMP:  49; 6HR MAX TEMP:  62; 6HR PCP:  0.30;

$$

LSZ147-162-221900-
LAKE SUPERIOR

STATION/POSITION TIME  TEMP    WIND        PRES    WAVE
                       AIR SEA DIR/SP/G            HT/PER
                 (UTC) (F)     (DEG/KT/KT) (MB)    (FT/S)
W MID LAKE BUOY  1750   52 52              1010.9R   5/ 5
DEVILS ISLAND    1800   52     240/ 22/ 25 1012.0R
SAXON HARBOR     1740   53     210/  7/ 14 1012.5F
$$

LMZ867-665-643>646-221900-
LAKE MICHIGAN

STATION/POSITION TIME  TEMP    WIND        PRES    WAVE
                       AIR SEA DIR/SP/G            HT/PER
                 (UTC) (F)     (DEG/KT/KT) (MB)    (FT/S)
S GREEN BAY BUOY 1800   51 58  310/ 12/ 14 1013.8
N MID LAKE BUOY  1750   60 58  190/ 23/ 27 1012.1F   7/ 7
NORTHPORT PIER   1740   54     300/ 12/ 19 1012.5S
KEWAUNEE LAKESHO 1



USA.gov is the U.S. government's official web portal to all federal, state and local government web resources and services.